| time (UTC) | temp F | wind direction | speed MPH | gust MPH | rain 1hr in | rain 24hr in | rain mn in | humidity % | barometer mb |
| 20260510184528 | 67 | 231 | 1.0 | 5.0 | 0.00 | 0.00 | 0.00 | 50 | 1012.5 |
| 20260510183024 | 64 | 89 | 0.0 | 1.0 | 0.00 | 0.00 | 0.00 | 55 | 1012.7 |
| 20260510181520 | 63 | 243 | 0.0 | 1.0 | 0.00 | 0.00 | 0.00 | 56 | 1012.7 |
| 20260510180018 | 62 | 99 | 0.0 | 1.0 | 0.00 | 0.00 | 0.00 | 63 | 1012.8 |
| 20260510174512 | 61 | 328 | 0.0 | 1.0 | 0.00 | 0.00 | 0.00 | 67 | 1013.0 |
| 20260510173009 | 60 | 65 | 0.0 | 2.0 | 0.00 | 0.00 | 0.00 | 68 | 1013.3 |
| 20260510171510 | 60 | 86 | 0.0 | 1.0 | 0.00 | 0.00 | 0.00 | 69 | 1013.4 |
| 20260510170005 | 59 | 292 | 0.0 | 1.0 | 0.00 | 0.00 | 0.00 | 69 | 1013.6 |
| 20260510164502 | 59 | 123 | 0.0 | 1.0 | 0.00 | 0.00 | 0.00 | 71 | 1013.7 |
| 20260510163107 | 58 | 128 | 0.0 | 1.0 | 0.00 | 0.00 | 0.00 | 72 | 1013.6 |
| 20260510161556 | 58 | 128 | 0.0 | 1.0 | 0.00 | 0.00 | 0.00 | 74 | 1013.7 |
| 20260510160108 | 56 | 314 | 0.0 | 1.0 | 0.00 | 0.00 | 0.00 | 78 | 1013.9 |
| 20260510154556 | 55 | 104 | 0.0 | 1.0 | 0.00 | 0.00 | 0.00 | 80 | 1013.8 |
| 20260510153044 | 54 | 115 | 0.0 | 0.0 | 0.00 | 0.00 | 0.00 | 83 | 1013.8 |
| 20260510151539 | 52 | 262 | 0.0 | 0.0 | 0.00 | 0.00 | 0.00 | 85 | 1014.0 |
| 20260510150036 | 50 | 262 | 0.0 | 0.0 | 0.00 | 0.00 | 0.00 | 87 | 1013.9 |
| 20260510144541 | 49 | 262 | 0.0 | 0.0 | 0.00 | 0.00 | 0.00 | 88 | 1013.8 |
| 20260510143039 | 48 | 262 | 0.0 | 0.0 | 0.00 | 0.00 | 0.00 | 88 | 1013.9 |
| 20260510141530 | 48 | 262 | 0.0 | 0.0 | 0.00 | 0.00 | 0.00 | 90 | 1013.8 |
| 20260510140035 | 46 | 262 | 0.0 | 0.0 | 0.00 | 0.00 | 0.00 | 89 | 1013.8 |
| 20260510134530 | 47 | 262 | 0.0 | 0.0 | 0.00 | 0.00 | 0.00 | 90 | 1013.7 |
| 20260510133027 | 46 | 262 | 0.0 | 0.0 | 0.00 | 0.00 | 0.00 | 89 | 1013.7 |
| 20260510131534 | 45 | 262 | 0.0 | 0.0 | 0.00 | 0.00 | 0.00 | 88 | 1013.6 |
| 20260510130026 | 45 | 262 | 0.0 | 0.0 | 0.00 | 0.00 | 0.00 | 88 | 1013.6 |
| 20260510124524 | 46 | 262 | 0.0 | 1.0 | 0.00 | 0.00 | 0.00 | 88 | 1013.7 |
| 20260510123029 | 45 | 262 | 0.0 | 0.0 | 0.00 | 0.00 | 0.00 | 88 | 1013.7 |
| 20260510121524 | 45 | 262 | 0.0 | 0.0 | 0.00 | 0.00 | 0.00 | 88 | 1013.7 |
| 20260510120025 | 45 | 262 | 0.0 | 0.0 | 0.00 | 0.00 | 0.00 | 89 | 1014.0 |
| 20260510114524 | 45 | 262 | 0.0 | 0.0 | 0.00 | 0.00 | 0.00 | 88 | 1013.9 |
| 20260510113021 | 45 | 262 | 0.0 | 1.0 | 0.00 | 0.00 | 0.00 | 88 | 1013.8 |
| 20260510111517 | 46 | 262 | 0.0 | 0.0 | 0.00 | 0.00 | 0.00 | 88 | 1014.0 |
| 20260510110031 | 46 | 263 | 0.0 | 0.0 | 0.00 | 0.00 | 0.00 | 87 | 1014.2 |
| 20260510104517 | 45 | 263 | 0.0 | 0.0 | 0.00 | 0.00 | 0.00 | 88 | 1014.2 |
| 20260510103014 | 45 | 263 | 0.0 | 0.0 | 0.00 | 0.00 | 0.00 | 86 | 1014.1 |
| 20260510101513 | 46 | 262 | 0.0 | 0.0 | 0.00 | 0.00 | 0.00 | 87 | 1014.1 |
| 20260510100016 | 46 | 263 | 0.0 | 0.0 | 0.00 | 0.00 | 0.00 | 86 | 1014.1 |
| 20260510094530 | 46 | 262 | 0.0 | 0.0 | 0.00 | 0.00 | 0.00 | 86 | 1014.2 |
| 20260510093012 | 46 | 262 | 0.0 | 0.0 | 0.00 | 0.00 | 0.00 | 86 | 1014.0 |
| 20260510091517 | 46 | 262 | 0.0 | 0.0 | 0.00 | 0.00 | 0.00 | 85 | 1013.9 |
| 20260510090013 | 47 | 262 | 0.0 | 0.0 | 0.00 | 0.00 | 0.00 | 85 | 1013.9 |
| 20260510084504 | 46 | 262 | 0.0 | 0.0 | 0.00 | 0.00 | 0.00 | 85 | 1013.8 |
| 20260510083002 | 47 | 262 | 0.0 | 1.0 | 0.00 | 0.00 | 0.00 | 84 | 1013.8 |
| 20260510081600 | 47 | 262 | 0.0 | 0.0 | 0.00 | 0.00 | 0.00 | 84 | 1013.7 |
| 20260510074555 | 48 | 346 | 0.0 | 0.0 | 0.00 | 0.00 | 0.00 | 82 | 1013.7 |
| 20260510073052 | 49 | 346 | 0.0 | 0.0 | 0.00 | 0.00 | 0.00 | 82 | 1013.4 |
| 20260510071554 | 49 | 346 | 0.0 | 0.0 | 0.00 | 0.00 | 0.00 | 82 | 1013.4 |
| 20260510070048 | 49 | 346 | 0.0 | 0.0 | 0.00 | 0.00 | 0.00 | 81 | 1013.5 |
| 20260510064548 | 50 | 346 | 0.0 | 0.0 | 0.00 | 0.00 | 0.00 | 81 | 1013.4 |
| 20260510063046 | 51 | 346 | 0.0 | 0.0 | 0.00 | 0.00 | 0.00 | 78 | 1013.4 |
| 20260510061549 | 51 | 346 | 0.0 | 0.0 | 0.00 | 0.00 | 0.00 | 78 | 1013.6 |
| 20260510060046 | 51 | 346 | 0.0 | 0.0 | 0.00 | 0.00 | 0.00 | 77 | 1013.5 |
| 20260510054545 | 52 | 346 | 0.0 | 0.0 | 0.00 | 0.00 | 0.00 | 76 | 1013.6 |
| 20260510053057 | 53 | 347 | 0.0 | 0.0 | 0.00 | 0.00 | 0.00 | 75 | 1013.6 |
| 20260510051548 | 53 | 346 | 0.0 | 0.0 | 0.00 | 0.00 | 0.00 | 74 | 1013.4 |
| 20260510050043 | 54 | 346 | 0.0 | 0.0 | 0.00 | 0.00 | 0.00 | 73 | 1013.6 |
| 20260510044542 | 55 | 346 | 0.0 | 0.0 | 0.00 | 0.00 | 0.00 | 72 | 1013.6 |
| 20260510043053 | 56 | 346 | 0.0 | 0.0 | 0.00 | 0.00 | 0.00 | 71 | 1013.5 |
| 20260510041542 | 57 | 346 | 0.0 | 1.0 | 0.00 | 0.00 | 0.00 | 67 | 1013.3 |
| 20260510040043 | 59 | 347 | 0.0 | 0.0 | 0.00 | 0.00 | 0.00 | 65 | 1013.4 |
| 20260510034541 | 61 | 347 | 0.0 | 0.0 | 0.00 | 0.00 | 0.00 | 63 | 1013.4 |
| 20260510033040 | 63 | 347 | 0.0 | 0.0 | 0.00 | 0.00 | 0.00 | 59 | 1013.2 |
| 20260510031546 | 65 | 347 | 0.0 | 0.0 | 0.00 | 0.00 | 0.00 | 56 | 1013.3 |
| 20260510030039 | 67 | 347 | 0.0 | 0.0 | 0.00 | 0.00 | 0.00 | 52 | 1013.2 |
| 20260510024541 | 68 | 347 | 0.0 | 0.0 | 0.00 | 0.00 | 0.00 | 49 | 1013.3 |
| 20260510023038 | 70 | 347 | 0.0 | 0.0 | 0.00 | 0.00 | 0.00 | 46 | 1013.3 |
| 20260510021545 | 71 | 347 | 0.0 | 1.0 | 0.00 | 0.00 | 0.00 | 40 | 1013.3 |
| 20260510020035 | 73 | 346 | 0.0 | 1.0 | 0.00 | 0.00 | 0.00 | 41 | 1013.5 |
| 20260510014534 | 74 | 23 | 0.0 | 2.0 | 0.00 | 0.00 | 0.00 | 35 | 1013.9 |
| 20260510013030 | 75 | 298 | 0.0 | 1.0 | 0.00 | 0.00 | 0.00 | 36 | 1014.0 |
| 20260510011540 | 76 | 297 | 0.0 | 3.0 | 0.00 | 0.00 | 0.00 | 32 | 1014.1 |
| 20260510010028 | 77 | 223 | 0.0 | 1.0 | 0.00 | 0.00 | 0.00 | 30 | 1014.2 |
| 20260510004530 | 76 | 343 | 0.0 | 3.0 | 0.00 | 0.00 | 0.00 | 30 | 1014.4 |
| 20260510003025 | 76 | 283 | 0.0 | 2.0 | 0.00 | 0.00 | 0.00 | 32 | 1014.3 |
| 20260510001523 | 76 | 274 | 0.0 | 2.0 | 0.00 | 0.00 | 0.00 | 32 | 1014.5 |
| 20260510000028 | 76 | 203 | 0.0 | 3.0 | 0.00 | 0.00 | 0.00 | 31 | 1014.7 |
| 20260509234520 | 76 | 215 | 1.0 | 3.0 | 0.00 | 0.00 | 0.00 | 31 | 1014.8 |
| 20260509233018 | 77 | 83 | 1.0 | 4.0 | 0.00 | 0.00 | 0.00 | 34 | 1015.0 |
| 20260509231516 | 77 | 112 | 0.0 | 2.0 | 0.00 | 0.00 | 0.00 | 33 | 1015.2 |
| 20260509230016 | 78 | 152 | 1.0 | 4.0 | 0.00 | 0.00 | 0.00 | 33 | 1015.4 |
| 20260509224513 | 77 | 208 | 1.0 | 3.0 | 0.00 | 0.00 | 0.00 | 32 | 1015.5 |
| 20260509223012 | 78 | 77 | 1.0 | 4.0 | 0.00 | 0.00 | 0.00 | 31 | 1015.7 |
| 20260509221509 | 76 | 259 | 0.0 | 3.0 | 0.00 | 0.00 | 0.00 | 33 | 1015.9 |
| 20260509220009 | 76 | 271 | 0.0 | 3.0 | 0.00 | 0.00 | 0.00 | 34 | 1016.3 |
| 20260509214503 | 75 | 124 | 0.0 | 4.0 | 0.00 | 0.00 | 0.00 | 35 | 1016.5 |
| 20260509213003 | 74 | 299 | 1.0 | 4.0 | 0.00 | 0.00 | 0.00 | 35 | 1016.6 |
| 20260509211501 | 74 | 136 | 1.0 | 4.0 | 0.00 | 0.00 | 0.00 | 36 | 1016.8 |
| 20260509210108 | 74 | 292 | 3.0 | 7.0 | 0.00 | 0.00 | 0.00 | 36 | 1017.0 |
| 20260509204558 | 74 | 316 | 1.0 | 3.0 | 0.00 | 0.00 | 0.00 | 36 | 1017.0 |
| 20260509203112 | 74 | 296 | 1.0 | 5.0 | 0.00 | 0.00 | 0.00 | 36 | 1017.1 |
| 20260509201556 | 74 | 138 | 1.0 | 3.0 | 0.00 | 0.00 | 0.00 | 37 | 1017.3 |
| 20260509200054 | 73 | 252 | 0.0 | 4.0 | 0.00 | 0.00 | 0.00 | 38 | 1017.5 |
| 20260509194551 | 72 | 88 | 0.0 | 2.0 | 0.00 | 0.00 | 0.00 | 37 | 1017.8 |
| 20260509193049 | 70 | 257 | 1.0 | 5.0 | 0.00 | 0.00 | 0.00 | 38 | 1018.2 |
| 20260509191556 | 69 | 96 | 0.0 | 3.0 | 0.00 | 0.00 | 0.00 | 41 | 1018.3 |
| 20260509190050 | 69 | 117 | 2.0 | 4.0 | 0.00 | 0.00 | 0.00 | 41 | 1018.5 |